Погода в Киялах

Казахстан     54°11′55″N   69°39′22″E
темп.,
°C
ветер,
м/с
пор.,
м/с
влажн.,
%
обл.,
%
осадки,
мм/ч
давл.,
гПа
погр.,
м
2 марта, вт
вт200:00−18зсз339889 0.1 101733
03:00−20з3410095 0.0 101738
06:00−21з339891 0.1 101760
09:00−19зюз2498100 0.2 1017140
12:00−16юз239393 0.3 1016239
15:00−14юз349299 0.0 1015313
18:00−15ююз239593 0.0 101420
21:00−16ююз349753 0.0 101427
3 марта, ср
ср300:00−17ююз479549 0.0 1014105
03:00−17ююз59940 0.0 1014184
06:00−18ююз512910 0.0 1013268
09:00−18ююз6139079 0.0 1012342
12:00−12юз7139488 0.3 1012549
15:00−9юз81393100 0.6 1010672
18:00−7юз81493100 1.3 1010768
21:00−6юз71688100 0.4 1009720
4 марта, чт
чт400:00−4юз71587100 0.4 1008723
03:00−3юз71491100 0.3 1006672
06:00−3ююз61490100 0.4 1005638
09:00−1ююз71592100 0.4 1004831
12:00+1юз91486100 0.4 10031039
15:00+1ююз81488100 0.0 10011059
18:000юз71288100 0.3 1001928
21:00−1юз71492100 0.1 1002678
5 марта, пт
пт500:00−5з71292100 0.5 1005550
03:00−9зюз7149296 0.1 1007352
06:00−12зюз6139249 0.1 1010272
09:00−12юз714880 0.0 1011327
12:00−7юз10168650 0.0 1010778
15:00−6юз111886100 0.2 10091003
18:00−3юз122185100 0.3 10091112
21:00−3юз122085100 0.1 10081079
6 марта, сб
сб600:00−3юз121989100 0.2 10091034
03:00−3юз111790100 0.2 1009925
06:00−3юз101786100 0.3 1009770
09:00−4зюз9169298 0.2 1010566
12:00−4з6108788 0.8 1012660
15:00−5з59830 0.0 1014606
18:00−7зюз368946 0.0 1016131
21:00−11юз238846 0.0 101621